EW2571 Cutchogue NY US current weather conditions

sailwx.info

Wind from 301 at 7 knots gusting 14

Air temperature 1.7° C
Dewpoint -3.6° C

Last reported at 2019-Dec-07 08:03 UTC.
Time now 2019-Dec-07 08:45 UTC

Location: N 41°00' W 072°29'.
View on Google Maps.

See reports from other nearby stations

  
Tides and Currents Weather Stations Pressure Air Temp Water Temp Dewpoint Dewpoint Depression Visibility Wind Speed Wind Dir Waves Ship Positions
date/time (UTC)wind fromknots sea level pressurealtimeterstation pressurevisibilityair tempwater tempwave heightnotes
2019-Dec-07 08:03 301 7 gusting 14 1.7
2019-Dec-07 07:48 297 8 gusting 15 1.7
2019-Dec-07 07:33 323 6 gusting 13 1.7
2019-Dec-07 07:18 354 5 gusting 11 1.7
2019-Dec-07 07:03 302 6 gusting 15 2.2
2019-Dec-07 06:48 302 8 gusting 14 2.2
2019-Dec-07 06:33 313 7 gusting 16 2.2
2019-Dec-07 06:18 309 7 gusting 13 2.2
2019-Dec-07 06:03 309 6 gusting 14 2.8
2019-Dec-07 05:48 295 9 gusting 20 2.8
2019-Dec-07 05:33 283 8 gusting 18 2.8
2019-Dec-07 05:18 308 7 gusting 13 3.3
2019-Dec-07 05:03 316 7 gusting 15 3.3
2019-Dec-07 04:48 306 8 gusting 17 3.3
2019-Dec-07 04:33 004 8 gusting 17 3.9
2019-Dec-07 04:18 295 8 gusting 16 3.9
2019-Dec-07 04:03 297 6 gusting 15 4.4
2019-Dec-07 03:48 009 6 gusting 19 5.0
2019-Dec-07 03:33 302 9 gusting 19 5.6
2019-Dec-07 03:18 314 9 gusting 19 6.1
2019-Dec-07 03:03 307 13 gusting 18 6.7
2019-Dec-07 02:48 318 9 gusting 18 6.7
2019-Dec-07 02:33 340 9 gusting 19 7.2
2019-Dec-07 02:18 296 9 gusting 18 7.8
2019-Dec-07 02:03 277 13 gusting 22 7.8
2019-Dec-07 01:48 304 9 gusting 20 8.3
2019-Dec-07 01:33 323 8 gusting 14 8.9
2019-Dec-07 01:18 265 6 gusting 13 8.9
2019-Dec-07 01:03 288 8 gusting 18 8.9
2019-Dec-07 00:48 259 6 gusting 15 9.4
2019-Dec-07 00:33 281 4 gusting 13 9.4
2019-Dec-07 00:18 287 3 gusting 13 8.9
2019-Dec-07 00:03 233 5 gusting 10 8.9
2019-Dec-06 23:48 252 6 gusting 12 9.4
2019-Dec-06 23:33 227 4 gusting 12 9.4
2019-Dec-06 23:18 245 6 gusting 14 9.4
2019-Dec-06 23:03 224 4 gusting 15 8.9
2019-Dec-06 22:48 210 4 gusting 13 8.9
2019-Dec-06 22:33 223 6 gusting 13 8.3
2019-Dec-06 22:18 186 5 gusting 18 8.3
2019-Dec-06 22:03 204 7 gusting 15 8.3
2019-Dec-06 21:48 177 6 gusting 12 8.3
2019-Dec-06 21:33 217 5 gusting 13 8.3
2019-Dec-06 21:18 164 6 gusting 15 8.3
2019-Dec-06 21:03 217 7 gusting 14 8.3
2019-Dec-06 20:48 277 6 gusting 13 8.3
2019-Dec-06 20:33 175 6 gusting 17 8.3
2019-Dec-06 20:18 132 6 gusting 12 8.3
2019-Dec-06 20:03 227 6 gusting 14 8.3
2019-Dec-06 19:48 188 6 gusting 16 7.8
2019-Dec-06 19:33 174 6 gusting 13 7.8
2019-Dec-06 19:18 183 5 gusting 12 7.2
2019-Dec-06 19:03 217 6 gusting 14 7.2
2019-Dec-06 18:48 184 3 gusting 12 7.2
2019-Dec-06 18:33 235 4 gusting 9 7.2
2019-Dec-06 18:18 203 5 gusting 11 6.7
2019-Dec-06 18:03 237 3 gusting 11 6.7
2019-Dec-06 17:48 170 5 gusting 11 6.7
2019-Dec-06 17:33 175 4 gusting 7 6.1
2019-Dec-06 17:18 224 4 gusting 9 6.1
2019-Dec-06 17:03 214 6 gusting 7 6.1
2019-Dec-06 16:48 146 3 gusting 13 6.1
2019-Dec-06 16:33 163 5 gusting 7 5.6
2019-Dec-06 16:18 110 2 gusting 8 5.0
2019-Dec-06 16:03 139 1 gusting 6 5.0
2019-Dec-06 15:48 107 2 gusting 8 4.4
2019-Dec-06 15:33 165 5 gusting 9 4.4
2019-Dec-06 15:18 210 4 gusting 9 3.9
2019-Dec-06 15:03 139 3 gusting 7 3.9
2019-Dec-06 14:48 219 2 gusting 6 3.3
2019-Dec-06 14:33 238 2 gusting 7 2.2
2019-Dec-06 14:18 219 2 gusting 5 2.2
2019-Dec-06 13:48 217 3 gusting 7 1.7
2019-Dec-06 13:33 239 1 gusting 5 1.7
2019-Dec-06 13:18 139 1 gusting 8 2.8
2019-Dec-06 13:03 252 0 gusting 5 2.2
2019-Dec-06 12:48 232 1 gusting 4 2.2
2019-Dec-06 12:33 269 3 gusting 8 2.2
2019-Dec-06 12:18 267 1 gusting 7 2.2
2019-Dec-06 12:03 283 3 gusting 8 2.2
2019-Dec-06 11:48 271 2 gusting 7 1.7
2019-Dec-06 11:33 319 3 gusting 7 1.7
2019-Dec-06 11:18 294 3 gusting 6 1.7
2019-Dec-06 11:03 289 2 gusting 6 1.7
2019-Dec-06 10:48 256 1 gusting 10 1.7
2019-Dec-06 10:33 301 4 gusting 8 1.7
2019-Dec-06 10:18 310 2 gusting 13 1.7
2019-Dec-06 10:03 302 5 gusting 12 1.7
2019-Dec-06 09:48 322 5 gusting 13 1.7
2019-Dec-06 09:33 267 4 gusting 9 1.7
2019-Dec-06 09:18 248 6 gusting 13 1.7
2019-Dec-06 09:03 301 4 gusting 10 1.7
2019-Dec-06 08:48 269 5 gusting 13 2.2
2019-Dec-06 08:33 299 5 gusting 12 2.2
2019-Dec-06 08:18 250 6 gusting 11 1.7
2019-Dec-06 08:03 281 3 gusting 8 2.2
2019-Dec-06 07:48 284 6 gusting 13 2.2
2019-Dec-06 07:33 302 7 gusting 13 2.2
2019-Dec-06 07:18 304 6 gusting 12 2.2
2019-Dec-06 07:03 304 5 gusting 9 2.2
2019-Dec-06 06:48 248 6 gusting 12 2.2
2019-Dec-06 06:33 286 7 gusting 13 2.2
2019-Dec-06 06:18 299 9 gusting 19 2.2
2019-Dec-06 06:03 309 11 gusting 16 2.2
2019-Dec-06 05:48 251 7 gusting 15 2.2
2019-Dec-06 05:33 326 6 gusting 15 2.2
2019-Dec-06 05:18 257 6 gusting 19 2.2
2019-Dec-06 05:03 296 8 gusting 13 2.2
2019-Dec-06 04:48 273 5 gusting 17 2.2
2019-Dec-06 04:33 252 6 gusting 17 2.2
2019-Dec-06 04:18 297 5 gusting 15 2.8
2019-Dec-06 04:03 307 7 gusting 17 2.8
2019-Dec-06 03:48 294 8 gusting 19 2.8
2019-Dec-06 03:33 279 7 gusting 19 2.8
2019-Dec-06 03:18 247 8 gusting 15 2.8
2019-Dec-06 03:03 289 6 gusting 16 3.3
2019-Dec-06 02:48 288 7 gusting 19 3.3
2019-Dec-06 02:33 282 6 gusting 16 3.3
2019-Dec-06 02:18 304 6 gusting 13 3.3
2019-Dec-06 02:03 293 7 gusting 16 3.3
2019-Dec-06 01:48 266 8 gusting 18 3.3
2019-Dec-06 01:33 300 8 gusting 19 3.3
2019-Dec-06 01:18 221 7 gusting 19 3.3
2019-Dec-06 01:03 262 10 gusting 18 3.9
2019-Dec-06 00:48 278 6 gusting 16 3.9
2019-Dec-06 00:33 282 6 gusting 17 3.9
2019-Dec-06 00:18 250 7 gusting 14 3.9
2019-Dec-06 00:03 304 11 gusting 19 3.9
2019-Dec-05 23:48 285 5 gusting 8 3.3
2019-Dec-05 23:33 323 10 gusting 15 3.3
2019-Dec-05 23:18 285 6 gusting 19 3.3
2019-Dec-05 23:03 327 9 gusting 17 4.4
2019-Dec-05 22:48 283 8 gusting 16 4.4
2019-Dec-05 22:33 248 7 gusting 18 4.4
2019-Dec-05 22:18 295 9 gusting 19 4.4
2019-Dec-05 22:03 276 7 gusting 17 4.4
2019-Dec-05 21:48 278 7 gusting 19 4.4
2019-Dec-05 21:33 296 7 gusting 19 4.4
2019-Dec-05 21:18 268 9 gusting 19 5.0
2019-Dec-05 21:03 265 6 gusting 14 4.4
2019-Dec-05 20:48 303 8 gusting 13 4.4
2019-Dec-05 20:33 268 6 gusting 19 4.4
2019-Dec-05 20:18 319 6 gusting 14 4.4
2019-Dec-05 20:03 298 9 gusting 18 4.4
2019-Dec-05 19:48 312 9 gusting 18 4.4
2019-Dec-05 19:33 240 7 gusting 21 5.0
2019-Dec-05 19:18 299 6 gusting 19 5.0
2019-Dec-05 19:03 249 10 gusting 15 5.0
2019-Dec-05 18:48 278 7 gusting 17 5.0
2019-Dec-05 18:33 295 6 gusting 14 5.0
2019-Dec-05 18:18 307 7 gusting 17 5.6
2019-Dec-05 18:03 285 7 gusting 16 5.6
2019-Dec-05 17:48 236 8 gusting 17 6.1
2019-Dec-05 17:33 266 6 gusting 17 6.1
2019-Dec-05 17:18 267 8 gusting 15 5.6
2019-Dec-05 17:03 306 7 gusting 15 5.6
2019-Dec-05 16:48 274 7 gusting 14 6.1
2019-Dec-05 16:33 300 7 gusting 15 6.1
2019-Dec-05 16:18 294 6 gusting 15 6.1
2019-Dec-05 16:03 270 8 gusting 19 6.1
2019-Dec-05 15:48 276 8 gusting 18 6.1
2019-Dec-05 15:33 297 8 gusting 15 6.1
2019-Dec-05 15:18 301 8 gusting 15 5.6
2019-Dec-05 15:03 326 4 gusting 15 5.6
2019-Dec-05 14:48 210 7 gusting 15 5.6
2019-Dec-05 14:33 277 6 gusting 13 5.6
2019-Dec-05 14:18 295 9 gusting 18 5.0
2019-Dec-05 14:03 285 6 gusting 12 4.4
2019-Dec-05 13:48 271 6 gusting 12 4.4
2019-Dec-05 13:33 281 4 gusting 12 4.4
2019-Dec-05 13:18 248 3 gusting 7 3.9
2019-Dec-05 13:03 278 3 gusting 10 3.9
2019-Dec-05 12:48 294 1 gusting 6 3.9
2019-Dec-05 12:33 285 3 gusting 15 3.9
2019-Dec-05 12:18 283 2 gusting 7 3.3
2019-Dec-05 12:03 271 4 gusting 12 3.3
2019-Dec-05 11:48 305 5 gusting 13 3.3
2019-Dec-05 11:33 307 5 gusting 13 3.3
2019-Dec-05 11:18 290 6 gusting 10 3.9
2019-Dec-05 11:03 311 6 gusting 13 3.9
2019-Dec-05 10:48 288 5 gusting 14 3.9
2019-Dec-05 10:33 269 6 gusting 11 3.9
2019-Dec-05 10:18 302 3 gusting 7 3.9
2019-Dec-05 10:03 274 3 gusting 7 3.9
2019-Dec-05 09:48 315 4 gusting 8 4.4
2019-Dec-05 09:33 302 5 gusting 12 4.4
2019-Dec-05 09:18 297 4 gusting 12 4.4
2019-Dec-05 09:03 303 4 gusting 11 4.4
2019-Dec-05 08:48 284 4 gusting 9 4.4
2019-Dec-05 08:33 250 4 gusting 9 4.4
2019-Dec-05 08:18 281 4 gusting 10 4.4
2019-Dec-05 08:03 248 4 gusting 9 4.4